Satellite-Ground Cal/Val Region Overpasses Predictions

Prediction of Satellite NPP Overpassing Cal/Val Region: PacNW

Region Location: (Latitude: 10.00, Longitude: 139.50) to (Latitude: 22.70, Longitude: 165.60).

Table of predicted overpasses for the next 14.0 days since TLE Epoch: 3/30/2024
Interval Starting Time Starting Location Ending Time Ending Location
1 03/30/2024 14:59:14 ( 22.68, 160.16) 03/30/2024 15:02:49 ( 10.06, 157.16)
2 03/31/2024 02:10:52 ( 18.96, 165.59) 03/31/2024 02:11:55 ( 22.66, 164.69)
3 03/31/2024 03:49:50 ( 10.04, 142.31) 03/31/2024 03:53:11 ( 21.84, 139.51)
4 03/31/2024 14:40:13 ( 22.69, 164.92) 03/31/2024 14:43:49 ( 10.01, 161.90)
5 03/31/2024 16:21:43 ( 22.69, 139.54) 03/31/2024 16:21:45 ( 22.57, 139.51)
6 04/01/2024 03:30:48 ( 10.03, 147.07) 04/01/2024 03:34:23 ( 22.65, 144.07)
7 04/01/2024 16:02:41 ( 22.69, 144.30) 04/01/2024 16:06:17 ( 10.01, 141.28)
8 04/02/2024 03:11:47 ( 10.03, 151.82) 04/02/2024 03:15:22 ( 22.65, 148.82)
9 04/02/2024 15:43:40 ( 22.70, 149.05) 04/02/2024 15:47:16 ( 10.02, 146.04)
10 04/03/2024 02:52:45 ( 10.02, 156.58) 04/03/2024 02:56:20 ( 22.64, 153.58)
11 04/03/2024 15:24:39 ( 22.64, 153.79) 04/03/2024 15:28:14 ( 10.02, 150.79)
12 04/04/2024 02:33:44 ( 10.02, 161.33) 04/04/2024 02:37:19 ( 22.64, 158.33)
13 04/04/2024 15:05:38 ( 22.64, 158.55) 04/04/2024 15:09:13 ( 10.02, 155.55)
14 04/05/2024 02:15:20 ( 12.19, 165.59) 04/05/2024 02:18:19 ( 22.70, 163.07)
15 04/05/2024 03:56:12 ( 10.02, 140.71) 04/05/2024 03:57:41 ( 15.25, 139.50)
16 04/05/2024 14:46:36 ( 22.64, 163.30) 04/05/2024 14:50:11 ( 10.02, 160.30)
17 04/06/2024 03:37:11 ( 10.03, 145.46) 04/06/2024 03:40:46 ( 22.65, 142.46)
18 04/06/2024 14:30:30 ( 12.37, 165.60) 04/06/2024 14:31:10 ( 10.02, 165.06)
19 04/06/2024 16:09:04 ( 22.69, 142.69) 04/06/2024 16:12:40 ( 10.01, 139.68)
20 04/07/2024 03:18:10 ( 10.03, 150.22) 04/07/2024 03:21:45 ( 22.65, 147.22)
21 04/07/2024 15:50:02 ( 22.69, 147.45) 04/07/2024 15:53:38 ( 10.01, 144.44)
22 04/08/2024 02:59:08 ( 10.04, 154.97) 04/08/2024 03:02:43 ( 22.66, 151.97)
23 04/08/2024 15:31:01 ( 22.68, 152.20) 04/08/2024 15:34:37 ( 10.00, 149.19)
24 04/09/2024 02:40:07 ( 10.04, 159.72) 04/09/2024 02:43:42 ( 22.67, 156.73)
25 04/09/2024 15:11:59 ( 22.67, 156.95) 04/09/2024 15:15:34 ( 10.05, 153.96)
26 04/10/2024 02:21:05 ( 10.05, 164.48) 04/10/2024 02:24:40 ( 22.68, 161.48)
27 04/10/2024 14:52:58 ( 22.66, 161.71) 04/10/2024 14:56:33 ( 10.04, 158.71)
28 04/11/2024 03:43:33 ( 10.01, 143.87) 04/11/2024 03:47:09 ( 22.70, 140.85)
29 04/11/2024 14:34:56 ( 19.13, 165.59) 04/11/2024 14:37:31 ( 10.03, 163.46)
30 04/11/2024 16:15:26 ( 22.64, 141.08) 04/11/2024 16:17:17 ( 16.13, 139.50)
31 04/12/2024 03:24:31 ( 10.03, 148.62) 04/12/2024 03:28:06 ( 22.65, 145.62)
32 04/12/2024 15:56:24 ( 22.69, 145.85) 04/12/2024 16:00:00 ( 10.01, 142.84)
